When you browse on this site, cookies collect data to enhance your experience and personalize the content and advertising you see.
Visit our Privacy Policy to learn more. By continuing to use the site, you agree to this use of cookies and data.
  • In Hungary
  • List of Countries
  • For 7 days
  • Water Temperature
  • Weather Map
  • News
  • Weather Widgets
  • user-avatar
    Login

    Hourly Weather Zytowo

    Today, 22 September, Sunday

    Time Temperature Precipitation Wind Pressure Humidity
    00:00 +10°C° 0 mm 3 mps 756 mmHg 96%
    01:00 +10°C° 0 mm 3 mps 756 mmHg 96%
    02:00 +9°C° 0 mm 3 mps 756 mmHg 96%
    03:00 +9°C° 0 mm 3 mps 756 mmHg 96%
    04:00 +9°C° 0 mm 3 mps 755 mmHg 96%
    05:00 +9°C° 0 mm 3 mps 755 mmHg 94%
    06:00 +10°C° 0 mm 4 mps 755 mmHg 92%
    07:00 +11°C° 0 mm 4 mps 755 mmHg 90%
    08:00 +12°C° 0 mm 4 mps 755 mmHg 83%
    09:00 +14°C° 0 mm 4 mps 755 mmHg 77%
    10:00 +17°C° 0 mm 3 mps 755 mmHg 70%
    11:00 +18°C° 0 mm 3 mps 755 mmHg 66%
    12:00 +19°C° 0 mm 3 mps 754 mmHg 63%
    13:00 +20°C° 0 mm 3 mps 754 mmHg 59%
    14:00 +19°C° 0 mm 3 mps 754 mmHg 63%
    15:00 +18°C° 0 mm 3 mps 754 mmHg 67%
    16:00 +18°C° 0 mm 3 mps 753 mmHg 70%
    17:00 +16°C° 0 mm 2 mps 754 mmHg 78%
    18:00 +14°C° 0 mm 2 mps 754 mmHg 86%
    19:00 +13°C° 0 mm 1 mps 754 mmHg 93%
    20:00 +12°C° 0 mm 2 mps 754 mmHg 93%
    21:00 +10°C° 0 mm 3 mps 755 mmHg 92%
    22:00 +10°C° 0 mm 4 mps 755 mmHg 92%
    23:00 +8°C° 0 mm 4 mps 755 mmHg 90%

    Tomorrow, 23 September, Monday

    Time Temperature Precipitation Wind Pressure Humidity
    00:00 +8°C° 0 mm 4 mps 756 mmHg 88%
    01:00 +7°C° 0 mm 4 mps 756 mmHg 86%
    02:00 +7°C° 0 mm 4 mps 756 mmHg 85%
    03:00 +6°C° 0 mm 4 mps 756 mmHg 85%
    04:00 +6°C° 0 mm 4 mps 756 mmHg 85%
    05:00 +6°C° 0 mm 4 mps 757 mmHg 83%
    06:00 +6°C° 0 mm 5 mps 757 mmHg 81%
    07:00 +7°C° 0 mm 5 mps 757 mmHg 80%
    08:00 +8°C° 0 mm 5 mps 757 mmHg 75%
    09:00 +9°C° 0 mm 5 mps 757 mmHg 70%
    10:00 +10°C° 0 mm 5 mps 758 mmHg 65%
    11:00 +12°C° 0 mm 5 mps 758 mmHg 62%
    12:00 +13°C° 0 mm 5 mps 757 mmHg 59%
    13:00 +13°C° 0 mm 5 mps 757 mmHg 57%
    14:00 +13°C° 0 mm 4 mps 757 mmHg 57%
    15:00 +13°C° 0 mm 4 mps 757 mmHg 58%
    16:00 +13°C° 0 mm 4 mps 757 mmHg 59%
    17:00 +11°C° 0 mm 4 mps 757 mmHg 61%
    18:00 +10°C° 0 mm 3 mps 757 mmHg 64%
    19:00 +8°C° 0 mm 3 mps 757 mmHg 67%
    20:00 +8°C° 0 mm 3 mps 757 mmHg 67%
    21:00 +7°C° 0 mm 3 mps 757 mmHg 67%
    22:00 +7°C° 0 mm 3 mps 757 mmHg 67%
    23:00 +5°C° 0 mm 3 mps 757 mmHg 69%

    Day after tomorrow, 24 September, Tuesday

    Time Temperature Precipitation Wind Pressure Humidity
    00:00 +5°C° 0 mm 3 mps 757 mmHg 71%
    01:00 +5°C° 0 mm 3 mps 756 mmHg 73%
    02:00 +4°C° 0 mm 3 mps 756 mmHg 74%
    03:00 +4°C° 0 mm 3 mps 756 mmHg 76%
    04:00 +5°C° 0 mm 2 mps 756 mmHg 77%
    05:00 +4°C° 0 mm 3 mps 755 mmHg 76%
    06:00 +5°C° 0 mm 3 mps 755 mmHg 74%
    07:00 +7°C° 0 mm 3 mps 755 mmHg 73%
    08:00 +9°C° 0 mm 3 mps 755 mmHg 70%
    09:00 +11°C° 0 mm 3 mps 755 mmHg 66%
    10:00 +13°C° 0 mm 3 mps 755 mmHg 63%
    11:00 +14°C° 0 mm 3 mps 754 mmHg 61%
    12:00 +17°C° 0 mm 3 mps 754 mmHg 59%
    13:00 +18°C° 0 mm 3 mps 753 mmHg 57%
    14:00 +18°C° 0 mm 3 mps 753 mmHg 60%
    15:00 +17°C° 0 mm 3 mps 753 mmHg 62%
    16:00 +17°C° 0 mm 3 mps 752 mmHg 65%
    17:00 +16°C° 0 mm 3 mps 752 mmHg 70%
    18:00 +13°C° 0 mm 3 mps 752 mmHg 76%
    19:00 +11°C° 0 mm 3 mps 751 mmHg 82%
    20:00 +11°C° 0 mm 3 mps 751 mmHg 81%
    21:00 +10°C° 0 mm 3 mps 751 mmHg 81%
    22:00 +10°C° 0 mm 4 mps 751 mmHg 80%
    23:00 +10°C° 0.1 mm 4 mps 751 mmHg 79%

    25 September, Wednesday

    Time Temperature Precipitation Wind Pressure Humidity
    00:00 +10°C° 0.1 mm 4 mps 750 mmHg 77%
    01:00 +10°C° 0.1 mm 4 mps 750 mmHg 75%
    02:00 +10°C° 0 mm 4 mps 750 mmHg 76%
    03:00 +10°C° 0 mm 4 mps 750 mmHg 77%
    04:00 +10°C° 0 mm 4 mps 749 mmHg 78%
    05:00 +10°C° 0 mm 3 mps 749 mmHg 79%
    06:00 +11°C° 0 mm 3 mps 749 mmHg 80%
    07:00 +11°C° 0 mm 3 mps 748 mmHg 80%
    08:00 +12°C° 0.1 mm 3 mps 748 mmHg 79%
    09:00 +12°C° 0.1 mm 3 mps 748 mmHg 78%
    10:00 +13°C° 0.1 mm 3 mps 748 mmHg 77%
    11:00 +13°C° 0.2 mm 3 mps 748 mmHg 79%
    12:00 +14°C° 0.2 mm 2 mps 747 mmHg 81%
    13:00 +13°C° 0.2 mm 2 mps 747 mmHg 84%
    14:00 +13°C° 0.4 mm 2 mps 747 mmHg 85%
    15:00 +13°C° 0.4 mm 2 mps 747 mmHg 87%
    16:00 +13°C° 0.4 mm 2 mps 746 mmHg 88%
    17:00 +13°C° 0.1 mm 2 mps 746 mmHg 89%
    18:00 +13°C° 0.1 mm 2 mps 746 mmHg 90%
    19:00 +13°C° 0.1 mm 2 mps 746 mmHg 91%
    20:00 +13°C° 0 mm 1 mps 746 mmHg 91%
    21:00 +13°C° 0 mm 1 mps 747 mmHg 92%
    22:00 +13°C° 0 mm 1 mps 747 mmHg 92%
    23:00 +12°C° 0.1 mm 1 mps 747 mmHg 93%

    26 September, Thursday

    Time Temperature Precipitation Wind Pressure Humidity
    00:00 +12°C° 0.1 mm 1 mps 747 mmHg 94%
    01:00 +12°C° 0.1 mm 1 mps 747 mmHg 95%
    02:00 +12°C° 0.3 mm 1 mps 747 mmHg 96%
    03:00 +12°C° 0.3 mm 1 mps 747 mmHg 96%
    04:00 +12°C° 0.3 mm 1 mps 747 mmHg 97%
    05:00 +12°C° 0.2 mm 1 mps 747 mmHg 97%
    06:00 +12°C° 0.2 mm 1 mps 747 mmHg 97%
    07:00 +12°C° 0.2 mm 2 mps 747 mmHg 97%
    08:00 +12°C° 0 mm 1 mps 748 mmHg 96%
    09:00 +12°C° 0 mm 1 mps 748 mmHg 94%
    10:00 +13°C° 0 mm 1 mps 749 mmHg 93%
    11:00 +13°C° 0 mm 1 mps 749 mmHg 90%
    12:00 +13°C° 0 mm 2 mps 749 mmHg 88%
    13:00 +14°C° 0 mm 2 mps 749 mmHg 86%
    14:00 +13°C° 0.1 mm 2 mps 749 mmHg 88%
    15:00 +13°C° 0.1 mm 2 mps 750 mmHg 89%
    16:00 +13°C° 0.1 mm 2 mps 750 mmHg 91%
    17:00 +12°C° 0 mm 2 mps 750 mmHg 93%
    18:00 +10°C° 0 mm 2 mps 750 mmHg 95%
    19:00 +9°C° 0 mm 2 mps 750 mmHg 96%
    20:00 +9°C° 0 mm 2 mps 751 mmHg 96%
    21:00 +9°C° 0 mm 2 mps 751 mmHg 96%
    22:00 +9°C° 0 mm 2 mps 751 mmHg 96%
    23:00 +8°C° 0 mm 2 mps 751 mmHg 96%

    27 September, Friday

    Time Temperature Precipitation Wind Pressure Humidity
    00:00 +7°C° 0 mm 2 mps 752 mmHg 96%
    01:00 +7°C° 0 mm 2 mps 752 mmHg 96%
    02:00 +7°C° 0 mm 2 mps 752 mmHg 96%
    03:00 +8°C° 0 mm 1 mps 752 mmHg 95%
    04:00 +8°C° 0 mm 1 mps 752 mmHg 94%
    05:00 +8°C° 0 mm 1 mps 752 mmHg 92%
    06:00 +9°C° 0 mm 1 mps 752 mmHg 90%
    07:00 +8°C° 0 mm 2 mps 753 mmHg 88%
    08:00 +9°C° 0 mm 2 mps 753 mmHg 85%
    09:00 +10°C° 0 mm 2 mps 753 mmHg 82%
    10:00 +10°C° 0 mm 2 mps 753 mmHg 79%
    11:00 +12°C° 0 mm 2 mps 753 mmHg 76%
    12:00 +13°C° 0 mm 2 mps 753 mmHg 73%
    13:00 +14°C° 0 mm 2 mps 753 mmHg 70%
    14:00 +14°C° 0 mm 2 mps 753 mmHg 71%
    15:00 +13°C° 0 mm 3 mps 753 mmHg 72%
    16:00 +13°C° 0 mm 3 mps 753 mmHg 73%
    17:00 +12°C° 0 mm 3 mps 753 mmHg 77%
    18:00 +11°C° 0 mm 3 mps 753 mmHg 80%
    19:00 +10°C° 0 mm 3 mps 753 mmHg 84%
    20:00 +10°C° 0.2 mm 4 mps 753 mmHg 84%
    21:00 +10°C° 0.2 mm 4 mps 753 mmHg 84%
    22:00 +10°C° 0.2 mm 5 mps 753 mmHg 83%
    23:00 +10°C° 0.6 mm 5 mps 752 mmHg 86%
    Show more